Temp_Advection
nan nan nan nan nan nan nan nan nan nan nan nan nan nan nan nan nan nan nan nan nan nan
nan 0 0 0 0 0 0 0 0 0 0 -0 0 0 0 1 1 0 0 -0 -0 nan
nan 0 0 0 0 0 0 0 0 0 0 0 -0 -0 0 -0 0 1 0 -0 -0 nan
nan 0 0 0 0 0 0 0 0 0 0 0 0 -0 -0 -0 0 1 0 -0 0 nan
nan 0 0 0 0 1 1 0 0 0 0 0 0 0 -0 -0 0 0 0 0 0 nan
nan 0 1 0 0 1 1 0 0 0 -0 -0 0 0 0 0 0 0 0 0 0 nan
nan 1 0 0 1 1 1 0 0 -0 -0 -0 0 0 0 0 -0 -0 0 0 0 nan
nan 1 1 1 1 1 1 0 -0 -0 -0 -0 -0 -0 -0 0 0 0 0 0 0 nan
nan 1 1 1 1 1 0 -0 -0 -0 -0 -0 -0 -0 0 0 0 0 0 0 0 nan
nan 1 1 1 1 0 0 -0 -0 -0 -0 -0 -0 0 0 0 0 0 0 0 0 nan
nan 1 1 1 0 0 -0 -0 -0 0 -0 -0 0 0 0 0 0 0 0 0 0 nan
nan 1 1 1 0 -0 0 0 0 0 -0 -0 0 0 0 0 0 0 0 0 0 nan
nan 1 1 0 -0 0 0 0 0 0 -0 -0 0 0 -0 -0 0 0 0 -0 0 nan
nan nan nan nan nan nan nan nan nan nan nan nan nan nan nan nan nan nan nan nan nan nan
Wind_Speed
21 19 18 19 20 21 21 22 24 24 24 25 25 26 26 26 26 24 20 19 20 20
19 17 17 19 20 21 23 23 23 23 23 24 23 23 22 21 19 18 20 17 17 17
18 17 18 18 19 20 22 22 22 21 21 21 20 19 18 18 18 19 17 13 13 9
17 17 17 18 20 20 21 21 21 20 19 19 17 16 15 15 14 15 14 14 14 14
16 18 19 20 21 21 21 21 21 20 19 18 17 16 15 14 12 11 11 12 12 12
17 19 19 20 21 21 21 21 21 20 20 19 17 17 16 15 14 13 11 12 12 12
17 18 18 20 20 20 20 20 19 19 19 17 16 16 15 16 15 14 13 13 12 12
18 19 19 19 19 19 18 18 19 18 17 17 17 16 14 14 14 12 11 11 10 10
18 18 18 17 17 16 17 18 17 16 16 15 14 13 13 12 10 10 10 7 6 5
18 17 17 16 15 15 15 15 15 14 14 13 11 11 11 10 8 7 7 6 5 5
17 17 16 15 14 14 14 13 14 13 13 12 10 9 10 10 9 7 7 7 5 5
19 17 16 15 13 13 13 13 12 12 13 11 10 11 10 8 7 7 7 6 6 7
18 17 16 13 12 12 13 13 12 13 12 13 12 11 9 8 6 7 7 7 7 7
18 16 14 13 13 14 14 14 13 13 13 13 12 11 10 8 7 8 7 7 8 8
Wind_Direction
230 237 246 257 265 269 268 268 274 276 275 275 275 276 275 275 273 274 271 263 261 262
237 246 257 265 267 266 267 267 272 274 275 276 275 275 274 271 268 265 269 267 263 256
241 253 260 266 268 269 270 272 272 273 276 278 278 276 273 270 266 260 261 256 255 248
248 258 264 268 271 272 273 274 273 273 273 275 275 274 272 271 268 262 255 248 251 252
258 265 271 273 272 273 271 272 271 271 270 270 270 266 263 263 263 261 260 258 256 258
256 263 266 268 270 270 268 268 268 268 268 267 266 263 260 259 257 253 254 255 255 256
260 265 266 266 267 267 266 264 263 263 265 266 263 260 255 254 252 249 248 250 251 252
264 269 270 268 265 261 257 254 259 262 263 263 261 257 252 246 244 244 242 242 245 248
268 271 270 270 264 257 256 257 256 258 262 260 259 251 240 236 230 235 232 226 224 217
267 264 261 265 271 266 260 254 255 259 259 253 246 239 226 220 213 206 204 210 217 244
264 268 267 270 262 257 252 245 245 249 252 230 224 219 201 194 184 197 213 226 235 251
266 264 264 262 256 246 239 235 237 240 235 220 210 204 198 198 195 210 226 238 249 257
261 259 259 254 244 236 229 227 233 235 219 206 202 203 207 212 211 226 240 253 261 268
257 256 252 240 232 229 226 227 228 221 210 207 210 214 219 222 225 236 251 262 269 277
Height
1516 1517 1517 1519 1520 1520 1520 1519 1518 1519 1519 1518 1518 1517 1516 1516 1516 1516 1515 1514 1514 1515
1512 1513 1514 1515 1516 1516 1515 1514 1513 1513 1514 1513 1513 1512 1511 1511 1511 1510 1509 1509 1509 1510
1506 1508 1509 1510 1510 1510 1510 1509 1508 1508 1508 1509 1508 1507 1506 1505 1505 1506 1506 1505 1506 1505
1502 1504 1505 1505 1505 1505 1505 1505 1504 1503 1503 1504 1504 1504 1502 1502 1501 1502 1502 1502 1502 1502
1498 1500 1501 1500 1500 1500 1500 1500 1501 1500 1500 1499 1500 1500 1499 1500 1499 1498 1498 1499 1498 1497
1493 1495 1494 1494 1494 1494 1495 1495 1495 1497 1496 1496 1495 1496 1497 1497 1496 1495 1494 1497 1496 1495
1488 1491 1489 1489 1489 1489 1490 1490 1490 1491 1492 1492 1491 1492 1491 1493 1492 1491 1490 1492 1493 1494
1484 1484 1484 1485 1483 1484 1485 1484 1486 1486 1488 1488 1488 1487 1487 1487 1489 1489 1488 1489 1490 1490
1478 1479 1478 1478 1478 1478 1480 1481 1481 1482 1484 1484 1484 1483 1483 1485 1484 1485 1487 1486 1489 1488
1475 1474 1474 1473 1473 1476 1476 1478 1478 1478 1479 1481 1481 1481 1481 1481 1481 1484 1487 1487 1485 1486
1469 1468 1468 1468 1471 1472 1473 1473 1476 1476 1477 1478 1479 1480 1480 1481 1479 1482 1485 1487 1484 1485
1464 1465 1465 1466 1468 1469 1469 1471 1473 1474 1475 1476 1477 1479 1481 1481 1478 1480 1484 1484 1484 1484
1461 1462 1463 1464 1465 1466 1467 1469 1471 1472 1472 1474 1476 1478 1480 1480 1478 1481 1483 1483 1483 1482
1457 1458 1460 1461 1462 1464 1465 1467 1468 1469 1471 1474 1475 1477 1478 1477 1479 1481 1480 1480 1480 1479